x

9063063 - Cleveland, Oh (cndo1) Weather Station

11:30pm - Sat 1st Aug 2015 All times are CDT. -5 hours from GMT.

  • Wind
    8mph, 13mph gusts
  • Air Temp 75°f
  • Sea Pressure 1012.5mb
  • 9063063 - Cleveland, Oh
  • 9063063 - Cleveland, Oh

More Historic Weather Station data

Upgrade to MSW Pro to gain access to the past 30 days of data for over 8000 Wavebouys and Weather Stations around the globe.

Join Pro

Comparision Forecast

View Surf forecast
   
Sat 08/01 11:30pm 8 13 mph 1012.5mb 75f
11:24pm 6 9 mph 1012.5mb 75f
11:18pm 6 9 mph 1012.4mb 75f
11:12pm 5 10 mph 1012.4mb 75f
11:06pm 7 10 mph 1012.3mb 75f
11:00pm 7 11 mph 1012.3mb 75f
10:54pm 7 11 mph 1012.3mb 75f
10:48pm 7 14 mph 1012.4mb -
10:42pm 10 14 mph 1012.3mb -
10:36pm 6 10 mph 1012.4mb -
10:30pm 6 14 mph 1012.4mb 76f
10:24pm 7 10 mph 1012.4mb 76f
10:18pm 6 9 mph 1012.4mb -
10:12pm 6 9 mph 1012.4mb 77f
10:06pm 6 9 mph 1012.5mb 77f
10:00pm 5 8 mph 1012.5mb 77f
9:54pm 6 8 mph 1012.5mb 77f
9:48pm 6 9 mph 1012.5mb 77f
9:42pm 6 9 mph 1012.5mb 77f
9:36pm 6 9 mph 1012.4mb 77f
9:30pm 6 9 mph 1012.4mb 77f
9:24pm 6 7 mph 1012.4mb 77f
9:18pm 5 8 mph 1012.3mb 77f
9:12pm 6 11 mph 1012.3mb 77f
9:06pm 6 11 mph 1012.4mb 77f
9:00pm 9 14 mph 1012.4mb 77f
8:54pm 9 14 mph 1012.3mb 77f
8:48pm 8 13 mph 1012.2mb 77f
8:42pm 7 11 mph 1012.2mb 77f
8:36pm 6 10 mph 1012.1mb 77f
8:30pm 7 13 mph 1012.1mb 77f
8:24pm 13 14 mph 1012.1mb 78f
8:18pm 11 14 mph 1012.1mb 77f
8:12pm 11 13 mph 1012mb 78f
8:06pm 11 14 mph 1012mb 78f
8:00pm 11 14 mph 1011.9mb 78f
7:54pm 11 15 mph 1011.9mb 78f
7:48pm 13 14 mph 1011.9mb 78f
7:42pm 13 14 mph 1011.9mb 78f
7:36pm 11 14 mph 1011.9mb 78f
7:30pm 11 14 mph 1011.9mb 78f
7:24pm 11 14 mph 1011.9mb 78f
7:18pm 11 13 mph 1011.9mb 78f
7:12pm 11 13 mph 1011.9mb 78f
7:06pm 14 15 mph 1011.9mb 78f
7:00pm 14 15 mph 1011.9mb 78f
6:54pm 15 16 mph 1011.9mb 78f
6:48pm 14 18 mph 1011.9mb 78f
6:42pm 15 17 mph 1011.8mb 78f
6:36pm 14 16 mph 1011.8mb 78f
6:30pm 16 18 mph 1011.8mb 78f
6:24pm 16 20 mph 1011.8mb 78f
6:18pm 16 17 mph 1011.8mb -
6:12pm 16 17 mph 1011.8mb 78f
6:06pm 17 18 mph 1011.8mb 78f
6:00pm 17 20 mph 1011.8mb 78f
5:54pm 17 20 mph 1011.8mb 78f
5:48pm 16 18 mph 1011.9mb 78f
5:42pm 16 18 mph 1011.9mb 78f
5:36pm 15 17 mph 1012mb 78f
5:30pm 15 16 mph 1012mb 78f
5:24pm 15 16 mph 1012.1mb 78f
5:18pm 15 16 mph 1012.1mb 78f
5:12pm 10 14 mph 1012.1mb 77f
5:06pm 11 13 mph 1012.1mb 77f
5:00pm 11 15 mph 1012.2mb 77f
4:54pm 13 15 mph 1012.2mb 77f
4:48pm 13 14 mph 1012.2mb 77f
4:42pm 13 14 mph 1012.2mb 77f
4:36pm 11 14 mph 1012.3mb 77f
4:30pm 13 15 mph 1012.3mb 77f
4:24pm 15 16 mph 1012.4mb 77f
4:18pm 15 16 mph 1012.5mb 77f
4:12pm 15 18 mph 1012.5mb 77f
4:06pm 17 20 mph 1012.5mb 77f
4:00pm 16 20 mph 1012.4mb 77f
3:54pm 17 20 mph 1012.4mb 77f
3:48pm 14 17 mph 1012.5mb 76f
3:42pm 14 15 mph 1012.5mb 77f
3:36pm 14 15 mph 1012.5mb 76f
3:30pm 11 13 mph 1012.6mb 76f
3:24pm 13 14 mph 1012.5mb 76f
3:18pm 13 16 mph 1012.5mb 76f
3:12pm 14 16 mph 1012.5mb 76f
3:06pm 14 16 mph 1012.6mb 76f
3:00pm 13 15 mph 1012.7mb 76f
2:54pm 13 15 mph 1012.7mb 75f
2:48pm 14 15 mph 1012.8mb 75f
2:42pm 14 16 mph 1012.9mb 75f
2:36pm 14 17 mph 1013mb 75f
2:30pm 14 16 mph 1013.1mb 75f
2:24pm 15 17 mph 1013.2mb 75f
2:18pm 15 17 mph 1013.2mb 75f
2:12pm 15 16 mph 1013.3mb 75f
2:06pm 15 17 mph 1013.3mb 75f
2:00pm 14 15 mph 1013.3mb 75f
1:54pm 13 15 mph 1013.4mb 75f
1:48pm 11 15 mph 1013.4mb 74f
1:42pm 11 15 mph 1013.4mb 74f
1:36pm 13 14 mph 1013.4mb 74f
1:30pm 13 14 mph 1013.4mb 75f
1:24pm 11 13 mph 1013.4mb 74f
1:12pm 11 13 mph 1013.4mb 74f
1:06pm 11 13 mph 1013.4mb 74f
1:00pm 11 13 mph 1013.4mb 74f
12:54pm 10 13 mph 1013.4mb 74f
12:48pm 10 11 mph 1013.4mb 74f
12:42pm 10 11 mph 1013.3mb 74f
12:36pm 9 13 mph 1013.4mb 74f
12:30pm 9 11 mph 1013.4mb 74f
12:24pm 9 11 mph 1013.4mb 74f
12:18pm 9 11 mph 1013.5mb 74f
12:12pm 10 11 mph 1013.5mb 74f
12:06pm 9 11 mph 1013.6mb 74f
12:00pm 9 11 mph 1013.6mb 73f
11:54am 9 11 mph 1013.6mb 73f
11:48am 9 11 mph 1013.6mb 73f
11:42am 9 14 mph 1013.6mb 73f
11:36am 10 13 mph 1013.7mb 73f
11:30am 9 11 mph 1013.7mb 73f
11:24am 10 13 mph 1013.8mb 74f
11:18am 10 13 mph 1013.8mb 73f
11:12am 9 11 mph 1013.7mb 73f
11:06am 9 10 mph 1013.8mb 74f
11:00am 10 11 mph 1013.8mb 73f
10:54am 10 13 mph 1013.8mb 73f
10:48am 10 13 mph 1013.8mb 73f
10:42am 9 11 mph 1013.7mb 73f
10:36am 9 11 mph 1013.7mb 74f
10:30am 10 13 mph 1013.7mb 73f
10:24am 10 13 mph 1013.7mb 73f
10:18am 9 13 mph 1013.7mb 73f
10:12am 9 13 mph 1013.6mb 73f
10:06am 9 13 mph 1013.5mb 73f
10:00am 10 14 mph 1013.5mb 73f
9:54am 10 14 mph 1013.5mb 73f
9:48am 14 15 mph 1013.4mb 73f
9:42am 13 15 mph 1013.4mb 73f
9:36am 13 16 mph 1013.4mb 73f
9:30am 14 15 mph 1013.4mb 73f
9:24am 14 16 mph 1013.5mb 73f
9:18am 14 16 mph 1013.4mb 72f
9:12am 15 17 mph 1013.4mb 72f
9:06am 14 16 mph 1013.3mb 72f
9:00am 14 16 mph 1013.3mb 72f
8:54am 13 15 mph 1013.3mb 72f
8:48am 13 15 mph 1013.3mb 72f
8:42am 13 17 mph 1013.3mb 72f
8:36am 14 17 mph 1013.3mb 72f
8:30am 13 15 mph 1013.3mb 72f
8:24am 13 16 mph 1013.4mb 72f
8:18am 13 16 mph 1013.4mb 72f
8:12am 11 14 mph 1013.3mb 71f
8:06am 6 13 mph 1013.2mb 71f
8:00am 8 11 mph 1013.2mb 71f
7:54am 7 13 mph 1013.1mb 71f
7:48am 7 13 mph 1013.1mb 71f
7:42am 9 13 mph 1013mb 71f
7:36am 9 14 mph 1013mb 71f
7:30am 9 13 mph 1012.9mb 71f
7:24am 6 13 mph 1012.8mb 71f
7:18am 5 8 mph 1012.8mb 71f
7:12am 5 8 mph 1012.8mb 71f
7:06am 5 6 mph 1012.7mb 71f
7:00am 5 7 mph 1012.7mb 71f
6:54am 3 5 mph 1012.7mb 70f
6:48am 3 6 mph 1012.8mb 70f
6:42am 2 5 mph 1012.7mb 70f
6:36am 2 5 mph 1012.7mb 69f
6:30am 2 5 mph 1012.7mb 69f
6:24am 2 3 mph 1012.7mb 69f
6:18am 2 5 mph 1012.6mb 69f
6:12am 2 5 mph 1012.6mb 68f
6:06am 2 6 mph 1012.5mb 68f
6:00am  -  3 mph 1012.4mb 68f
5:54am 3 6 mph 1012.4mb 68f
5:48am 3 6 mph 1012.3mb 68f
5:42am 5 7 mph 1012.3mb 69f
5:36am 7 10 mph 1012.2mb 69f
5:30am 10 13 mph 1012.1mb 71f
5:24am 10 13 mph 1012.1mb 71f
5:18am 10 13 mph 1012.1mb 71f
5:12am 11 14 mph 1012mb 74f
5:06am 10 13 mph 1011.9mb 74f
5:00am 10 14 mph 1011.9mb 74f
4:54am 11 14 mph 1011.9mb 74f
4:48am 10 13 mph 1011.9mb 74f
4:42am 10 13 mph 1011.8mb 74f
4:36am 9 11 mph 1011.8mb 74f
4:30am 9 11 mph 1011.7mb 74f
4:24am 9 11 mph 1011.7mb 74f
4:18am 10 11 mph 1011.7mb 74f
4:12am 9 10 mph 1011.8mb 74f
4:06am 9 11 mph 1011.8mb 74f
4:00am 8 9 mph 1011.7mb 74f
3:54am 8 10 mph 1011.7mb 74f
3:48am 8 10 mph 1011.7mb 74f
3:42am 9 11 mph 1011.7mb 74f
3:36am 9 11 mph 1011.6mb 74f
3:30am 9 11 mph 1011.7mb 74f
3:24am 10 14 mph 1011.6mb 74f
3:18am 11 14 mph 1011.6mb 74f
3:12am 11 14 mph 1011.6mb 74f
3:06am 13 14 mph 1011.6mb 74f
3:00am 13 15 mph 1011.6mb 74f
2:54am 14 16 mph 1011.6mb 74f
2:48am 14 17 mph 1011.6mb 74f
2:42am 15 18 mph 1011.6mb 74f
2:36am 17 20 mph 1011.6mb 74f
2:30am 16 20 mph 1011.6mb 74f
2:24am 17 21 mph 1011.7mb 74f
2:18am 17 21 mph 1011.7mb 75f
2:12am 17 22 mph 1011.6mb 75f
2:06am 18 22 mph 1011.7mb 75f
2:00am 18 22 mph 1011.7mb 75f
1:54am 17 23 mph 1011.6mb 75f
1:48am  -  mph 1011.6mb 76f
1:42am  -  mph 1011.6mb 76f
1:36am  -  mph 1011.6mb 76f
1:30am 20 24 mph 1011.7mb 76f
1:24am 20 24 mph 1011.6mb 76f
1:18am 21 24 mph 1011.6mb 76f
1:12am 21 23 mph 1011.6mb 76f
1:06am 21 23 mph 1011.6mb 76f
1:00am 21 24 mph 1011.6mb 76f
12:54am 20 25 mph 1011.6mb 76f
12:48am 21 25 mph 1011.6mb 76f
12:42am 21 24 mph 1011.7mb 76f
12:36am 21 24 mph 1011.7mb 76f
12:30am 21 25 mph 1011.7mb 76f
12:24am 21 25 mph 1011.7mb 77f
12:18am 20 25 mph 1011.7mb 77f
12:12am 21 23 mph 1011.6mb 77f
12:06am 21 23 mph 1011.6mb 77f
12:00am 20 24 mph 1011.6mb 77f
Fri 07/31 11:54pm 18 23 mph 1011.6mb 77f
11:48pm 20 23 mph 1011.6mb 77f
11:42pm 20 23 mph 1011.7mb 77f
11:36pm 18 25 mph 1011.6mb 77f
11:30pm 18 25 mph 1011.6mb 77f
11:24pm 18 24 mph 1011.6mb 77f
11:18pm 21 24 mph 1011.6mb 77f
11:12pm 21 24 mph 1011.6mb 77f
11:06pm 21 24 mph 1011.5mb 77f
11:00pm 22 24 mph 1011.5mb 78f
10:54pm 21 25 mph 1011.5mb 78f
10:48pm 20 23 mph 1011.4mb 78f
10:42pm 20 23 mph 1011.4mb 78f
10:36pm 18 22 mph 1011.5mb 78f
10:30pm 18 22 mph 1011.5mb 78f
10:24pm 17 21 mph 1011.6mb 77f
10:18pm 17 21 mph 1011.5mb 78f
10:12pm 14 17 mph 1011.4mb 78f
10:06pm 14 17 mph 1011.4mb 78f
10:00pm 15 17 mph 1011.4mb 78f
9:54pm 15 18 mph 1011.3mb 78f
9:48pm 15 20 mph 1011.3mb 78f
9:42pm 16 20 mph 1011.2mb 78f
9:36pm 16 20 mph 1011.1mb 78f
9:30pm 17 21 mph 1011.1mb 78f
9:24pm 17 21 mph 1011mb 78f
9:18pm 17 21 mph 1011.1mb 79f
9:12pm 17 22 mph 1011mb 79f
9:06pm 17 23 mph 1010.9mb 79f
9:00pm 17 21 mph 1010.9mb 79f
8:54pm 17 21 mph 1010.9mb 79f
8:48pm 17 22 mph 1010.8mb 79f
8:42pm 20 24 mph 1010.7mb 79f
8:36pm 21 23 mph 1010.6mb 80f
8:30pm 17 21 mph 1010.5mb 80f
8:24pm 17 21 mph 1010.4mb 80f
8:18pm 21 23 mph 1010.4mb 80f
8:12pm 15 21 mph 1010.3mb 80f
8:06pm 20 24 mph 1010.3mb 80f
8:00pm 20 23 mph 1010.3mb 80f
7:54pm 20 22 mph 1010.3mb 80f
7:48pm 18 25 mph 1010.2mb 81f
7:42pm 20 21 mph 1010.2mb 81f
7:36pm 20 21 mph 1010.2mb 81f
7:30pm 14 18 mph 1010.2mb 80f
7:24pm 13 14 mph 1010.2mb 80f
7:18pm 10 15 mph 1010.2mb 81f
7:12pm 10 15 mph 1010.2mb 81f
7:06pm 9 13 mph 1010.1mb 82f
7:00pm 7 13 mph 1010.1mb 82f
6:54pm 6 11 mph 1010.1mb 82f
6:48pm 9 14 mph 1010.1mb 82f
6:42pm 8 16 mph 1010.1mb 82f
6:36pm 13 15 mph 1010.1mb 82f
6:00pm 14 17 mph 1010.1mb 82f
5:54pm 14 18 mph 1010.2mb 82f
5:48pm 14 15 mph 1010.2mb 83f
5:42pm 13 15 mph 1010.3mb 82f
5:36pm 14 16 mph 1010.3mb 82f
5:30pm 14 15 mph 1010.4mb 82f
5:24pm 14 16 mph 1010.5mb 81f
5:18pm 13 14 mph 1010.6mb 82f
5:12pm 13 14 mph 1010.6mb 82f
5:06pm 10 14 mph 1010.7mb 82f
5:00pm 14
mph
1010.7mb 82f
4:54pm 14 15 mph 1010.8mb 81f
4:48pm 14 15 mph 1010.9mb 81f
4:42pm 13 16 mph 1011mb 81f
4:36pm 13 15 mph 1011mb 81f
4:30pm 13 15 mph 1011.1mb 81f
4:24pm 13 14 mph 1011.1mb 81f
4:18pm 13 15 mph 1011.2mb 80f
4:12pm 13 15 mph 1011.1mb 81f
4:06pm 11 13 mph 1011.1mb 80f
4:00pm 10 13 mph 1011.2mb 81f
3:54pm 10 11 mph 1011.3mb 81f
3:48pm 10 14 mph 1011.4mb 81f
3:42pm 13 15 mph 1011.5mb 81f
3:36pm 13 15 mph 1011.6mb 81f
3:30pm 15 18 mph 1011.6mb 81f
3:24pm 15 17 mph 1011.6mb 81f
3:18pm 14 15 mph 1011.7mb 81f
3:12pm 13 15 mph 1011.7mb 80f
3:06pm 14 16 mph 1011.8mb 80f
3:00pm 14 16 mph 1011.9mb 80f
2:54pm 14 17 mph 1011.9mb 81f
2:48pm 15 17 mph 1012.1mb 81f
2:42pm 15 17 mph 1012.2mb 80f
2:36pm 14 17 mph 1012.2mb 80f
2:30pm 14 17 mph 1012.3mb 80f
2:24pm 13 15 mph 1012.4mb 80f
2:18pm 13 15 mph 1012.4mb 80f
2:12pm 13 15 mph 1012.5mb 79f
2:06pm 14 17 mph 1012.6mb 79f
2:00pm 15 18 mph 1012.6mb 79f
1:54pm 14 17 mph 1012.7mb 79f
1:48pm 14 17 mph 1012.7mb 78f
1:42pm 15 16 mph 1012.8mb 78f
1:36pm 15 16 mph 1012.9mb 78f
1:30pm 15 18 mph 1012.9mb 78f
1:24pm 15 17 mph 1013mb 78f
1:18pm 15 17 mph 1013mb 78f
1:12pm 15 17 mph 1013mb 78f
1:06pm 15 17 mph 1013mb 77f
1:00pm 14 17 mph 1013.1mb 77f
12:54pm 15 17 mph 1013.1mb 77f
12:48pm 15 18 mph 1013.2mb 77f
12:42pm 17 18 mph 1013.3mb 77f
12:36pm 17 18 mph 1013.4mb 77f
12:30pm 17 20 mph 1013.4mb 77f
12:24pm 16 18 mph 1013.5mb 77f
12:18pm 17 20 mph 1013.5mb 76f
12:12pm 17 20 mph 1013.5mb 76f
12:06pm 17 20 mph 1013.5mb 76f
12:00pm 16 18 mph 1013.6mb 76f
11:54am 15 18 mph 1013.6mb 76f
11:48am 16 17 mph 1013.7mb 76f
11:42am 16 18 mph 1013.7mb 76f
11:36am 15 16 mph 1013.8mb 76f
11:30am 14 16 mph 1013.9mb 76f
11:24am 14 15 mph 1013.9mb 77f
11:18am 14 15 mph 1013.9mb 77f
11:12am 11 14 mph 1013.9mb 76f
11:06am 11 14 mph 1014mb 77f
11:00am 11 14 mph 1014mb 76f
10:54am 11 13 mph 1014mb 76f
10:48am 11 13 mph 1014mb 76f
10:42am 11 13 mph 1014mb 76f
10:36am 11 13 mph 1014mb 76f
10:30am 11 13 mph 1014.1mb 76f
10:24am 11 13 mph 1014.1mb 76f
10:18am 10 13 mph 1014.1mb 76f
10:12am 10 13 mph 1014.1mb 76f
10:06am 10 11 mph 1014.2mb 76f
10:00am 10 11 mph 1014.2mb 76f
9:54am 11 13 mph 1014.2mb 76f
9:48am  -  mph 1014.2mb 76f
9:42am 9 13 mph 1014.2mb 76f
9:36am 9 13 mph 1014.2mb 75f
9:30am 10 13 mph 1014.2mb 75f
9:24am 11 14 mph 1014.3mb 75f
9:18am 9 14 mph 1014.2mb 75f
9:12am 9 13 mph 1014.3mb 75f
9:06am 11 14 mph 1014.3mb 75f
9:00am 11 15 mph 1014.3mb 74f
8:54am 11 15 mph 1014.3mb 74f
8:48am 10 17 mph 1014.3mb 74f
8:42am 11 15 mph 1014.4mb 75f
8:36am 6 13 mph 1014.4mb 74f
8:30am 8 13 mph 1014.4mb 74f
8:24am 8 14 mph 1014.4mb 74f
8:18am 7 13 mph 1014.4mb 74f
8:12am 7 13 mph 1014.3mb 74f
8:06am 7 13 mph 1014.4mb 74f
8:00am 7 14 mph 1014.3mb 74f
7:54am 7 14 mph 1014.3mb 74f
7:48am 9 15 mph 1014.3mb 74f
7:42am 6 11 mph 1014.4mb 74f
7:36am 8 14 mph 1014.4mb 74f
7:30am 8 13 mph 1014.4mb 74f
7:24am 7 13 mph 1014.4mb 73f
7:18am 7 13 mph 1014.3mb 73f
7:12am 6 11 mph 1014.3mb 73f
7:06am 6 9 mph 1014.3mb 73f
7:00am 6 10 mph 1014.3mb 73f
6:54am 6 9 mph 1014.2mb 73f
6:48am 6 9 mph 1014.2mb 73f
6:42am 7 11 mph 1014.2mb 72f
6:36am 7 10 mph 1014.2mb 72f
6:30am 7 10 mph 1014.1mb 72f
6:24am 8 16 mph 1014.1mb 72f
6:18am 9 15 mph 1014.1mb 72f
6:12am 6 14 mph 1014.1mb 72f
6:06am 6 9 mph 1014mb 72f
6:00am 6 11 mph 1014mb 72f
5:54am 6 9 mph 1014mb 72f
5:48am 6 10 mph 1014mb 72f
5:42am 7 11 mph 1014mb 72f
5:36am 7 13 mph 1013.9mb 72f
5:30am 9 16 mph 1013.8mb 72f
5:24am 10 15 mph 1013.9mb 72f
5:18am 6 9 mph 1013.9mb 72f
5:12am 7 15 mph 1013.8mb 72f
5:06am 14 18 mph 1013.8mb 72f
5:00am 14 20 mph 1013.8mb 73f
4:54am 14 18 mph 1013.9mb 73f
4:48am 14 18 mph 1013.9mb 73f
4:42am 11 17 mph 1013.9mb 73f
4:36am 5 8 mph 1013.9mb 72f
4:30am 6 8 mph 1014mb 72f
4:24am 5 9 mph 1014mb 72f
4:18am 5 7 mph 1014mb 72f
4:12am 5 7 mph 1014mb 72f
4:06am 3 5 mph 1014mb 71f
4:00am 5 8 mph 1014mb 71f
3:54am 3 8 mph 1014mb 71f
3:48am 2 5 mph 1014.1mb 70f
3:42am 2 5 mph 1014.1mb 70f
3:36am 3 8 mph 1014.1mb 70f
3:30am 6 11 mph 1014.1mb 71f
3:24am 7 11 mph 1014.1mb 72f
3:18am 6 11 mph 1014mb 73f
3:12am 8 13 mph 1014mb 73f
3:06am 7 14 mph 1014.1mb 73f
3:00am 7 13 mph 1014mb 73f
2:54am  -  mph 1014.1mb 73f
2:48am 7 14 mph 1014.1mb 73f
2:42am 7 14 mph 1014.1mb 73f
2:36am 10 15 mph 1014.2mb 73f
2:30am 14 16 mph 1014.2mb 73f
2:24am 13 16 mph 1014.2mb 74f
2:18am 11 17 mph 1014.3mb 74f
2:12am 14 17 mph 1014.3mb 74f
2:06am 14 17 mph 1014.3mb 74f
2:00am 13 16 mph 1014.3mb 74f
1:54am 13 15 mph 1014.3mb 75f
1:48am 13 16 mph 1014.3mb 75f
1:42am 13 16 mph 1014.3mb 75f
1:36am 11 14 mph 1014.3mb 75f
1:30am 10 15 mph 1014.4mb 75f
1:24am 11 16 mph 1014.4mb 75f
1:18am 14 17 mph 1014.4mb 75f
1:12am 14 16 mph 1014.4mb 75f
1:06am 14 16 mph 1014.4mb 76f
1:00am 14 15 mph 1014.4mb 76f
12:54am 14 18 mph 1014.4mb 75f
12:48am 14 18 mph 1014.4mb 76f
12:42am 16 18 mph 1014.5mb 76f
12:36am 16 18 mph 1014.4mb 77f
12:30am 16 18 mph 1014.4mb 77f
12:24am 16 18 mph 1014.5mb 77f
12:18am 17 20 mph 1014.5mb 77f
12:12am 16 20 mph 1014.5mb 77f
12:06am 16 20 mph 1014.5mb 77f
12:00am 15 17 mph 1014.5mb 77f
Thu 07/30 11:54pm 15 18 mph 1014.6mb 77f
11:48pm 17 18 mph 1014.6mb 77f
11:42pm 17 20 mph 1014.5mb 77f
11:36pm 18 21 mph 1014.5mb 78f
11:30pm 17 22 mph 1014.4mb 77f
11:24pm 17 21 mph 1014.4mb 77f
11:18pm 17 21 mph 1014.4mb 78f
11:12pm 17 21 mph 1014.4mb 78f
11:06pm 17 20 mph 1014.4mb 78f
11:00pm 17 21 mph 1014.4mb 78f
10:54pm 17 20 mph 1014.4mb 78f
10:48pm 17 20 mph 1014.4mb 78f
10:42pm 16 20 mph 1014.4mb 78f
10:36pm 17 21 mph 1014.4mb 78f
10:30pm 16 21 mph 1014.4mb 78f
10:24pm 18 22 mph 1014.4mb 78f
10:18pm 17 21 mph 1014.3mb 78f
10:12pm 18 22 mph 1014.3mb 78f
10:06pm 18 22 mph 1014.3mb 78f
10:00pm 18 22 mph 1014.2mb 78f
9:54pm 17 21 mph 1014.2mb 78f
9:48pm 17 21 mph 1014.3mb 78f
9:42pm 17
mph
1014.2mb 78f
9:36pm 16 20 mph 1014.2mb 78f
9:30pm 16 20 mph 1014.2mb 78f
9:24pm 16 21 mph 1014.2mb 78f
9:18pm 16 18 mph 1014.1mb 78f
9:12pm 16 18 mph 1014.1mb 78f
9:06pm 16 18 mph 1014mb 78f
9:00pm 16 18 mph 1014mb 78f
8:54pm 16 18 mph 1013.9mb 78f
8:48pm 16 18 mph 1013.9mb 78f
8:42pm 15 16 mph 1013.8mb 78f
8:36pm 14 16 mph 1013.8mb 78f
8:30pm 14 16 mph 1013.7mb 78f
8:24pm 14 17 mph 1013.7mb 78f
8:18pm 14 17 mph 1013.7mb 78f
8:12pm 14 16 mph 1013.6mb 78f
8:06pm 15 17 mph 1013.6mb 78f
8:00pm 14 16 mph 1013.6mb 78f
7:54pm 14 16 mph 1013.6mb 78f
7:48pm 14 17 mph 1013.6mb 78f
7:42pm 14 17 mph 1013.6mb 78f
7:36pm 13 16 mph 1013.6mb 78f
7:30pm 11 15 mph 1013.6mb 78f
7:24pm 14 15 mph 1013.6mb 78f
7:18pm 14 15 mph 1013.6mb 78f
7:12pm 14 15 mph 1013.6mb 78f
7:06pm 14 17 mph 1013.6mb 78f
7:00pm 15 17 mph 1013.6mb 78f
6:54pm 15 18 mph 1013.6mb 79f
6:48pm 15 17 mph 1013.7mb 79f
6:42pm 15 17 mph 1013.7mb 78f
6:36pm 15 17 mph 1013.8mb 79f
6:30pm 14 18 mph 1013.7mb 79f
6:24pm 14 18 mph 1013.8mb 79f
6:18pm 15 18 mph 1013.8mb 79f
6:12pm 15 18 mph 1013.8mb 79f
6:06pm 15 18 mph 1013.8mb 79f
6:00pm 14 15 mph 1013.8mb 78f
5:54pm 14 15 mph 1013.8mb 79f
5:48pm 14
mph
1013.8mb 79f
5:42pm 14
mph
1013.8mb 79f
5:36pm 11 14 mph 1013.8mb 78f
5:30pm 11 14 mph 1013.8mb 79f
5:24pm 11 15 mph 1013.8mb 78f
5:18pm 13 15 mph 1013.8mb 78f
5:12pm 13 15 mph 1013.9mb 78f
5:06pm 13 15 mph 1013.9mb 78f
5:00pm 14 16 mph 1013.9mb 78f
4:54pm 14 16 mph 1013.9mb 78f
4:48pm 13 16 mph 1013.9mb 78f
4:42pm 15 16 mph 1013.9mb 78f
4:36pm 15 16 mph 1014mb 79f
4:30pm 14 16 mph 1014mb 79f
4:24pm 13 15 mph 1014mb 79f
4:18pm 14 16 mph 1014.1mb 79f
4:12pm 15 16 mph 1014.1mb 79f
4:06pm 15 16 mph 1014.1mb 79f
4:00pm 14 17 mph 1014.1mb 79f
3:54pm 15 18 mph 1014.1mb 78f
3:48pm 15 18 mph 1014.1mb 79f
3:42pm 17 18 mph 1014.2mb 79f
3:36pm 17 21 mph 1014.2mb 79f
3:30pm 17 21 mph 1014.2mb 79f
3:24pm 17 21 mph 1014.2mb 79f
3:18pm 17 20 mph 1014.3mb -
3:12pm 16 18 mph 1014.3mb 79f
3:06pm 17 20 mph 1014.3mb 79f
3:00pm 16 20 mph 1014.3mb 79f
2:54pm 17 20 mph 1014.3mb 79f
2:48pm 17 20 mph 1014.4mb 79f
2:42pm 17 21 mph 1014.4mb 79f
2:36pm 17 21 mph 1014.4mb 79f
2:30pm 17 21 mph 1014.4mb 79f
2:24pm 17 21 mph 1014.4mb 79f
2:18pm 17 21 mph 1014.5mb 79f
2:12pm 15 20 mph 1014.5mb 78f
2:06pm 17 21 mph 1014.5mb 78f
2:00pm 17 22 mph 1014.5mb 78f
1:54pm 18 21 mph 1014.6mb 78f
1:48pm 18 20 mph 1014.6mb 78f
1:42pm 17 21 mph 1014.6mb 78f
1:36pm 18 21 mph 1014.7mb 78f
1:30pm 17 22 mph 1014.7mb 78f
1:24pm 18 21 mph 1014.7mb 78f
1:18pm 18 21 mph 1014.7mb 77f
1:12pm 17 18 mph 1014.8mb 77f
1:06pm 17 18 mph 1014.8mb 77f
1:00pm 15 18 mph 1014.8mb 77f
12:54pm 16 17 mph 1014.9mb 77f
12:48pm 15 17 mph 1014.9mb 77f
12:42pm 16 17 mph 1015mb 76f
12:36pm 16 17 mph 1015.1mb 76f
12:30pm 15 17 mph 1015.1mb 76f
12:24pm 15 17 mph 1015.1mb 76f
12:18pm 16 17 mph 1015.2mb 76f
12:12pm 15 17 mph 1015.1mb 76f
12:06pm 16 18 mph 1015.1mb 76f
12:00pm 16 18 mph 1015.1mb 75f
11:54am 16 18 mph 1015.1mb 75f
11:48am 16 18 mph 1015.1mb 76f
11:42am 16 18 mph 1015.1mb 75f
11:36am 15 17 mph 1015.1mb 75f
11:30am 15 16 mph 1015.1mb 75f
11:24am 15 18 mph 1015.1mb 75f
11:18am 15 16 mph 1015.1mb 75f
11:12am 15 16 mph 1015.2mb 75f
11:06am 15 18 mph 1015.2mb 75f
11:00am 15 18 mph 1015.1mb -
10:54am 15 17 mph 1015.1mb 75f
10:48am 15 17 mph 1015.1mb 75f
10:36am 16 20 mph 1015mb 75f
10:30am 16 18 mph 1015mb 75f
10:24am 16 18 mph 1015mb 75f
10:18am 15 17 mph 1015mb 75f
10:12am 16 18 mph 1014.9mb 75f
10:06am 16 18 mph 1014.9mb 75f
10:00am 16 18 mph 1014.9mb 75f
9:54am 15 17 mph 1014.8mb 75f
9:48am 15 18 mph 1014.8mb 75f
9:42am 15 18 mph 1014.7mb 75f
9:36am 16 20 mph 1014.7mb 75f
9:30am 16 20 mph 1014.7mb 75f
9:24am 17 20 mph 1014.7mb 75f
9:18am 17 20 mph 1014.7mb 75f
9:12am 16 18 mph 1014.7mb 75f
9:06am 16 20 mph 1014.6mb 75f
9:00am 15 18 mph - -
8:54am 17 20 mph 1014.5mb 75f
8:48am 17 20 mph 1014.6mb 75f
8:42am 16 18 mph 1014.5mb 75f
8:36am 16 18 mph 1014.5mb 75f
8:30am 15 18 mph 1014.5mb 75f
8:24am 15 18 mph 1014.5mb 75f
8:18am 16 18 mph 1014.5mb 75f
8:12am 15 18 mph 1014.4mb 75f
8:06am 16 17 mph 1014.4mb 75f
7:54am 15 17 mph 1014.3mb 75f
7:48am  -  mph - 75f
7:42am  -  mph - 74f
7:36am  -  mph - 74f
7:24am  -  mph - 74f
7:12am  -  mph - 74f
7:06am  -  mph - 74f
7:00am  -  mph - 74f
6:54am  -  mph - 74f
6:48am  -  mph - 74f
6:30am  -  mph - 73f
6:24am  -  mph - 73f
6:12am  -  mph - 73f
6:06am  -  mph - 73f
6:00am  -  mph - 73f
5:54am  -  mph - 74f
5:48am  -  mph - 74f
5:42am  -  mph - 74f
5:36am  -  mph - 74f
5:30am  -  mph - 74f
5:24am  -  mph - 74f
5:18am  -  mph - 76f
5:12am  -  mph - 76f
5:06am  -  mph - 76f
5:00am  -  mph - 76f
4:54am  -  mph - 76f
4:48am  -  mph 1013.2mb 76f
4:42am  -  mph 1013.2mb 76f
4:36am  -  mph 1013.2mb 76f
4:30am  -  mph 1013.2mb 76f
4:24am  -  mph 1013.2mb 76f
4:18am  -  mph - 76f
4:12am  -  mph - 76f
4:06am  -  mph - 77f
4:00am  -  mph - 76f
3:54am  -  mph - 76f
3:48am  -  mph - 77f
3:42am  -  mph - 77f
3:36am  -  mph - 76f
3:30am  -  mph - 77f
3:24am  -  mph - 77f
3:18am  -  mph - 77f
3:12am  -  mph - 77f
3:06am  -  mph - 77f
3:00am  -  mph 1013mb 77f
2:54am  -  mph 1013mb 77f
2:48am  -  mph - 77f
2:42am  -  mph - 77f
2:36am  -  mph - 77f
2:30am  -  mph - 77f
2:24am  -  mph - 77f
2:18am  -  mph - 77f
2:12am  -  mph - 77f
2:06am  -  mph - 77f
2:00am  -  mph - 77f
1:54am  -  mph - 77f
1:48am  -  mph - 77f
1:42am  -  mph - 78f
1:36am  -  mph - 78f
1:30am  -  mph 1013.3mb 78f
1:24am  -  mph 1013.3mb 78f
1:18am  -  mph 1013.3mb 78f
1:12am  -  mph 1013.4mb 78f
1:06am  -  mph 1013.4mb 78f
1:00am  -  mph 1013.3mb 78f
12:54am  -  mph 1013.4mb 78f
12:48am  -  mph 1013.4mb 78f
12:12am  -  mph - 77f
12:06am  -  mph - 77f
12:00am  -  mph - 77f
Wed 07/29 11:54pm  -  mph - 77f
11:48pm  -  mph - 78f
11:42pm  -  mph - 78f
11:36pm  -  mph - 78f
11:30pm  -  mph - 78f
11:24pm  -  mph - 79f
11:18pm  -  mph - 79f
11:12pm  -  mph - 79f
11:06pm  -  mph - 78f
11:00pm  -  mph - 78f
10:54pm  -  mph - 78f
10:48pm  -  mph - 78f
10:42pm  -  mph - 78f
10:36pm  -  mph - 78f
10:30pm  -  mph - 78f
10:24pm  -  mph - 78f
10:18pm  -  mph - 78f
10:12pm  -  mph - 78f
10:06pm  -  mph - 78f
10:00pm  -  mph - 77f
9:54pm  -  mph - 77f
9:48pm  -  mph - 77f
9:42pm  -  mph - 77f
9:36pm  -  mph - 77f
9:30pm  -  mph - 77f
9:24pm  -  mph - 77f
9:18pm  -  mph - 77f
9:12pm  -  mph - 77f
9:06pm  -  mph - 77f
9:00pm  -  mph - 78f
8:54pm  -  mph - 78f
8:48pm 5 8 mph 1012.3mb 78f
8:42pm 3 7 mph 1012.2mb 78f
8:36pm 3 7 mph 1012.1mb 78f
8:30pm  -  mph - 78f
8:24pm  -  mph - 78f
8:18pm  -  mph - 78f
8:12pm  -  mph - 78f
8:06pm  -  mph - 78f
8:00pm  -  mph - 78f
7:54pm  -  mph - 78f
7:48pm 13 15 mph 1012.5mb 78f
7:42pm 13 15 mph 1012.6mb 78f
7:36pm 18 25 mph 1012.6mb 78f
7:30pm  -  mph 1012.6mb 79f
7:24pm  -  mph 1012.4mb 79f
7:18pm  -  mph 1012.4mb 79f
7:12pm  -  mph 1012.6mb 78f
7:06pm  -  mph 1012.7mb 78f
7:00pm  -  mph - 78f
6:54pm  -  mph - 78f
6:48pm  -  mph - 79f
6:42pm  -  mph - 80f
6:36pm  -  mph - 79f
6:30pm  -  mph - 80f
6:24pm  -  mph - 80f
6:18pm  -  mph - 81f
6:12pm  -  mph - 80f
6:06pm  -  mph - 81f
6:00pm 2 5 mph 1011.8mb 80f
5:54pm 2 3 mph 1011.8mb 81f
5:48pm 2
mph
1012mb 80f
5:42pm 1 2 mph 1012.1mb 81f
5:36pm  -  2 mph 1012mb 82f
5:30pm  -  mph - 83f
5:24pm  -  mph - 82f
5:18pm  -  mph - 82f
5:12pm  -  mph - 82f
5:06pm  -  mph - 82f
5:00pm  -  mph - 82f
4:54pm  -  mph - 82f
4:48pm  -  mph - 82f
4:42pm  -  mph - 83f
4:36pm  -  mph - 83f
4:30pm  -  mph - 83f
4:24pm  -  mph - 83f
4:18pm  -  mph - 84f
4:12pm  -  mph - 84f
4:06pm  -  mph - 84f
4:00pm  -  mph 1012.1mb 84f
3:54pm  -  mph 1012.1mb 84f
3:48pm  -  mph 1012.1mb 83f
3:42pm  -  mph 1012.1mb 83f
3:36pm  -  mph 1012mb 82f
3:30pm  -  mph 1012mb 83f
3:24pm  -  mph 1012.2mb 82f
3:18pm  -  mph - 82f
3:12pm  -  mph - 83f
3:06pm  -  mph - 83f
3:00pm  -  mph - 83f
2:54pm  -  mph - 83f
2:48pm  -  mph - 82f
2:42pm  -  mph - 82f
2:36pm  -  mph - 82f
2:30pm  -  mph - 82f
2:24pm  -  mph - 82f
2:18pm  -  mph - 82f
2:12pm  -  mph - 84f
2:06pm  -  mph - 83f
2:00pm  -  mph - 83f
1:54pm  -  mph - 83f
1:48pm  -  mph - 83f
1:42pm  -  mph - 83f
1:36pm  -  mph - 83f
1:30pm  -  mph - 82f
1:24pm  -  mph - 83f
1:18pm  -  mph - 83f
1:12pm  -  mph - 84f
1:06pm  -  mph - 83f
1:00pm  -  mph - 83f
12:54pm  -  mph - 83f
12:48pm  -  mph - 83f
12:42pm  -  mph - 83f
12:36pm  -  mph - 83f
12:30pm  -  mph - 83f
12:24pm  -  mph - 83f
12:18pm 7 8 mph 1014.1mb 82f
12:12pm 6 7 mph 1014.2mb 82f
12:06pm 6 7 mph 1014.2mb 81f
12:00pm 2 3 mph 1014.2mb 82f
11:54am 3
mph
1014.2mb 82f
11:48am 2
mph
1014.2mb 83f
10:54am  -  mph 1014.6mb 82f
10:48am  -  mph 1014.6mb 82f
10:42am  -  mph 1014.6mb 82f
10:36am  -  mph 1014.7mb 82f
10:30am  -  mph 1014.7mb 82f
10:24am  -  mph 1014.7mb 82f
10:18am  -  mph 1014.8mb 81f
10:12am  -  mph 1014.8mb 81f
10:06am 2 3 mph 1014.8mb 81f
10:00am  -  mph 1014.8mb 82f
9:54am  -  mph 1014.8mb 82f
9:48am  -  mph 1014.8mb -
9:42am  -  mph 1014.8mb 82f
9:36am  -  mph 1014.8mb 81f
9:30am  -  mph 1014.8mb 81f
9:24am  -  mph 1014.9mb 82f
9:18am  -  mph 1014.9mb 82f
9:12am  -  mph 1014.8mb 83f
9:06am  -  mph 1014.8mb 85f
9:00am 1 3 mph 1014.8mb 84f
8:54am 1 3 mph 1014.9mb 84f
8:48am 1 3 mph 1014.8mb 83f
8:42am 1 6 mph 1014.9mb 82f
8:36am 1 6 mph 1014.9mb 82f
8:30am 2 7 mph 1014.9mb 82f
8:24am 2 6 mph 1014.9mb 82f
8:18am 2 6 mph 1015mb 81f
8:12am 2 6 mph 1015mb 81f
8:06am 1 7 mph 1015mb 81f
8:00am 2 6 mph 1014.9mb 80f
7:54am 2 7 mph 1014.9mb 79f
7:48am 2 7 mph 1014.8mb 79f
7:42am 3 5 mph 1014.7mb 79f
7:36am 2 6 mph 1014.7mb 78f
7:30am 2 6 mph 1014.7mb 78f
7:24am 3 7 mph 1014.7mb 77f
7:18am 3 6 mph 1014.6mb 77f
7:12am 3 7 mph 1014.6mb 76f
7:06am 3 7 mph 1014.5mb 76f
7:00am 2 6 mph 1014.5mb 76f
6:54am 2 6 mph 1014.5mb 75f
6:48am 2 5 mph 1014.5mb 75f
6:42am 2 5 mph 1014.5mb 74f
6:36am 2 6 mph 1014.5mb 74f
6:30am 3 8 mph 1014.4mb 73f
6:24am 2 7 mph 1014.5mb 73f
6:18am 2 7 mph 1014.5mb 73f
6:12am 5 7 mph 1014.5mb 73f
6:06am 3 6 mph 1014.6mb 72f
6:00am 3 6 mph 1014.7mb 72f
5:54am 2 7 mph 1014.7mb 72f
5:48am 2 6 mph 1014.5mb 72f
5:42am 2 5 mph 1014.4mb 72f
5:36am 2 5 mph 1014.3mb 71f
5:30am  -  2 mph 1014.2mb 71f
5:24am  -  5 mph 1014.2mb 71f